Location: Camaret
(48.2753°N, 4.5961°W)
Time: 02:50:06
(UTC+00:00)

Cosmos 2297 Rocket - Pass Details

Date: 29 October 2020
Orbit: 838 x 844 km, 71.0° (Epoch: 01 December)

Event Time Altitude Azimuth Distance (km) Brightness Sun altitude
Rises 17:29:19 0° 333° (NNW) 3,415 5.5 -4.9°
Reaches altitude 10° 17:31:50 10° 338° (NNW) 2,476 4.7 -5.3°
Maximum altitude 17:37:26 58° 58° (ENE) 979 2.3 -6.2°
Drops below altitude 10° 17:43:00 10° 137° (SE) 2,460 4.3 -7.1°
Sets 17:45:29 0° 141° (SE) 3,390 5.1 -7.5°
